When you browse on this site, cookies collect data to enhance your experience and personalize the content and advertising you see.
Visit our Privacy Policy to learn more. By continuing to use the site, you agree to this use of cookies and data.
  • In Slovakia
  • List of Countries
  • For 7 days
  • Water Temperature
  • Satellite Maps
  • Weather Map
  • Weather Widgets
  • user-avatar
    Login

    Hourly Weather Tirana

    Today, 25 March, Monday

    Time Temperature Precipitation Wind Pressure Humidity
    00:00 +13°C° 0 mm 1 mps 755 mmHg 66%
    01:00 +13°C° 0 mm 1 mps 754 mmHg 67%
    02:00 +13°C° 0 mm 1 mps 754 mmHg 67%
    03:00 +12°C° 0 mm 1 mps 754 mmHg 67%
    04:00 +12°C° 0 mm 1 mps 754 mmHg 67%
    05:00 +13°C° 0 mm 1 mps 754 mmHg 65%
    06:00 +13°C° 0 mm 2 mps 754 mmHg 63%
    07:00 +13°C° 0 mm 3 mps 753 mmHg 59%
    08:00 +16°C° 0 mm 2 mps 753 mmHg 53%
    09:00 +18°C° 0 mm 2 mps 753 mmHg 46%
    10:00 +19°C° 0 mm 2 mps 752 mmHg 39%
    11:00 +20°C° 0 mm 2 mps 752 mmHg 38%
    12:00 +20°C° 0 mm 3 mps 752 mmHg 37%
    13:00 +21°C° 0 mm 3 mps 751 mmHg 36%
    14:00 +20°C° 0 mm 3 mps 751 mmHg 40%
    15:00 +20°C° 0 mm 3 mps 750 mmHg 43%
    16:00 +19°C° 0 mm 3 mps 750 mmHg 46%
    17:00 +18°C° 0 mm 2 mps 750 mmHg 54%
    18:00 +16°C° 0 mm 2 mps 750 mmHg 62%
    19:00 +14°C° 0 mm 2 mps 749 mmHg 70%
    20:00 +14°C° 0 mm 2 mps 749 mmHg 70%
    21:00 +13°C° 0 mm 3 mps 749 mmHg 69%
    22:00 +12°C° 0 mm 3 mps 749 mmHg 69%
    23:00 +12°C° 0 mm 3 mps 749 mmHg 67%

    Tomorrow, 26 March, Tuesday

    Time Temperature Precipitation Wind Pressure Humidity
    00:00 +12°C° 0 mm 3 mps 749 mmHg 65%
    01:00 +13°C° 0 mm 2 mps 749 mmHg 64%
    02:00 +12°C° 0 mm 2 mps 749 mmHg 63%
    03:00 +12°C° 0 mm 2 mps 749 mmHg 63%
    04:00 +12°C° 0 mm 2 mps 749 mmHg 63%
    05:00 +13°C° 0 mm 2 mps 749 mmHg 62%
    06:00 +13°C° 0 mm 2 mps 750 mmHg 61%
    07:00 +14°C° 0 mm 2 mps 750 mmHg 61%
    08:00 +16°C° 0 mm 2 mps 750 mmHg 55%
    09:00 +19°C° 0 mm 1 mps 750 mmHg 49%
    10:00 +21°C° 0 mm 1 mps 750 mmHg 43%
    11:00 +20°C° 0 mm 2 mps 750 mmHg 42%
    12:00 +21°C° 0 mm 3 mps 750 mmHg 42%
    13:00 +21°C° 0 mm 4 mps 750 mmHg 41%
    14:00 +21°C° 0.1 mm 4 mps 750 mmHg 42%
    15:00 +20°C° 0.1 mm 4 mps 750 mmHg 44%
    16:00 +20°C° 0.1 mm 4 mps 750 mmHg 45%
    17:00 +18°C° 0 mm 4 mps 751 mmHg 51%
    18:00 +16°C° 0 mm 3 mps 752 mmHg 56%
    19:00 +14°C° 0 mm 3 mps 752 mmHg 61%
    20:00 +13°C° 0 mm 3 mps 753 mmHg 61%
    21:00 +13°C° 0 mm 3 mps 754 mmHg 61%
    22:00 +12°C° 0 mm 3 mps 754 mmHg 61%
    23:00 +12°C° 0 mm 3 mps 755 mmHg 59%

    Day after tomorrow, 27 March, Wednesday

    Time Temperature Precipitation Wind Pressure Humidity
    00:00 +12°C° 0 mm 3 mps 755 mmHg 57%
    01:00 +11°C° 0 mm 3 mps 755 mmHg 55%
    02:00 +11°C° 0 mm 4 mps 755 mmHg 55%
    03:00 +10°C° 0 mm 4 mps 755 mmHg 55%
    04:00 +10°C° 0 mm 4 mps 755 mmHg 54%
    05:00 +10°C° 0 mm 4 mps 755 mmHg 53%
    06:00 +11°C° 0 mm 4 mps 755 mmHg 53%
    07:00 +11°C° 0 mm 4 mps 756 mmHg 52%
    08:00 +13°C° 0 mm 4 mps 756 mmHg 47%
    09:00 +15°C° 0 mm 4 mps 756 mmHg 41%
    10:00 +18°C° 0 mm 4 mps 756 mmHg 35%
    11:00 +19°C° 0.1 mm 3 mps 756 mmHg 35%
    12:00 +19°C° 0.1 mm 3 mps 756 mmHg 35%
    13:00 +20°C° 0.1 mm 2 mps 756 mmHg 35%
    14:00 +19°C° 0.1 mm 3 mps 756 mmHg 40%
    15:00 +18°C° 0.1 mm 3 mps 756 mmHg 46%
    16:00 +17°C° 0.1 mm 3 mps 756 mmHg 51%
    17:00 +16°C° 0.1 mm 3 mps 756 mmHg 58%
    18:00 +15°C° 0.1 mm 2 mps 756 mmHg 65%
    19:00 +14°C° 0.1 mm 2 mps 756 mmHg 72%
    20:00 +13°C° 0 mm 2 mps 757 mmHg 72%
    21:00 +13°C° 0 mm 2 mps 757 mmHg 72%
    22:00 +13°C° 0 mm 1 mps 757 mmHg 72%
    23:00 +12°C° 0.1 mm 2 mps 757 mmHg 69%

    28 March, Thursday

    Time Temperature Precipitation Wind Pressure Humidity
    00:00 +12°C° 0.1 mm 2 mps 757 mmHg 66%
    01:00 +11°C° 0.1 mm 3 mps 758 mmHg 63%
    02:00 +10°C° 0 mm 3 mps 757 mmHg 61%
    03:00 +10°C° 0 mm 4 mps 757 mmHg 58%
    04:00 +8°C° 0 mm 5 mps 757 mmHg 55%
    05:00 +9°C° 0 mm 5 mps 757 mmHg 54%
    06:00 +9°C° 0 mm 5 mps 757 mmHg 53%
    07:00 +9°C° 0 mm 5 mps 758 mmHg 52%
    08:00 +12°C° 0 mm 5 mps 758 mmHg 46%
    09:00 +14°C° 0 mm 5 mps 758 mmHg 40%
    10:00 +15°C° 0 mm 4 mps 758 mmHg 33%
    11:00 +17°C° 0 mm 4 mps 758 mmHg 32%
    12:00 +18°C° 0 mm 4 mps 757 mmHg 30%
    13:00 +19°C° 0 mm 4 mps 757 mmHg 28%
    14:00 +19°C° 0 mm 4 mps 757 mmHg 29%
    15:00 +19°C° 0 mm 4 mps 757 mmHg 30%
    16:00 +19°C° 0 mm 5 mps 757 mmHg 32%
    17:00 +16°C° 0 mm 5 mps 757 mmHg 35%
    18:00 +14°C° 0 mm 5 mps 757 mmHg 39%
    19:00 +12°C° 0 mm 5 mps 758 mmHg 43%
    20:00 +12°C° 0 mm 5 mps 758 mmHg 44%
    21:00 +10°C° 0 mm 5 mps 759 mmHg 46%
    22:00 +9°C° 0 mm 5 mps 759 mmHg 47%
    23:00 +9°C° 0 mm 5 mps 759 mmHg 50%

    29 March, Friday

    Time Temperature Precipitation Wind Pressure Humidity
    00:00 +8°C° 0 mm 5 mps 759 mmHg 52%
    01:00 +8°C° 0 mm 5 mps 759 mmHg 54%
    02:00 +7°C° 0 mm 5 mps 759 mmHg 56%
    03:00 +7°C° 0 mm 5 mps 759 mmHg 57%
    04:00 +7°C° 0 mm 4 mps 760 mmHg 59%
    05:00 +7°C° 0 mm 5 mps 760 mmHg 57%
    06:00 +8°C° 0 mm 5 mps 760 mmHg 56%
    07:00 +9°C° 0 mm 5 mps 760 mmHg 55%
    08:00 +12°C° 0 mm 5 mps 760 mmHg 46%
    09:00 +13°C° 0 mm 4 mps 760 mmHg 38%
    10:00 +15°C° 0 mm 4 mps 761 mmHg 29%
    11:00 +16°C° 0 mm 5 mps 760 mmHg 27%
    12:00 +17°C° 0 mm 5 mps 760 mmHg 26%
    13:00 +19°C° 0 mm 5 mps 759 mmHg 24%
    14:00 +17°C° 0 mm 5 mps 759 mmHg 25%
    15:00 +17°C° 0 mm 6 mps 759 mmHg 26%
    16:00 +17°C° 0 mm 7 mps 759 mmHg 27%
    17:00 +16°C° 0 mm 7 mps 759 mmHg 31%
    18:00 +14°C° 0 mm 7 mps 759 mmHg 35%
    19:00 +11°C° 0 mm 7 mps 760 mmHg 39%
    20:00 +10°C° 0 mm 7 mps 760 mmHg 40%
    21:00 +9°C° 0 mm 6 mps 760 mmHg 42%
    22:00 +9°C° 0 mm 6 mps 761 mmHg 43%
    23:00 +8°C° 0 mm 6 mps 761 mmHg 44%

    30 March, Saturday

    Time Temperature Precipitation Wind Pressure Humidity
    00:00 +8°C° 0 mm 5 mps 761 mmHg 45%
    01:00 +7°C° 0 mm 5 mps 760 mmHg 47%
    02:00 +7°C° 0 mm 5 mps 760 mmHg 46%
    03:00 +6°C° 0 mm 5 mps 760 mmHg 46%
    04:00 +6°C° 0 mm 4 mps 760 mmHg 46%
    05:00 +7°C° 0 mm 4 mps 760 mmHg 46%
    06:00 +7°C° 0 mm 4 mps 760 mmHg 46%
    07:00 +9°C° 0 mm 3 mps 760 mmHg 46%
    08:00 +11°C° 0 mm 3 mps 760 mmHg 41%
    09:00 +14°C° 0 mm 4 mps 760 mmHg 36%
    10:00 +17°C° 0 mm 4 mps 760 mmHg 32%
    11:00 +17°C° 0 mm 5 mps 760 mmHg 32%
    12:00 +19°C° 0 mm 6 mps 759 mmHg 31%
    13:00 +20°C° 0 mm 7 mps 758 mmHg 31%
    14:00 +18°C° 0 mm 7 mps 758 mmHg 36%
    15:00 +17°C° 0 mm 7 mps 758 mmHg 41%
    16:00 +16°C° 0 mm 8 mps 757 mmHg 46%
    17:00 +15°C° 0 mm 7 mps 757 mmHg 54%
    18:00 +12°C° 0 mm 7 mps 757 mmHg 62%
    19:00 +10°C° 0 mm 6 mps 758 mmHg 70%
    20:00 +10°C° 0 mm 5 mps 758 mmHg 70%
    21:00 +11°C° 0 mm 4 mps 758 mmHg 70%
    22:00 +10°C° 0 mm 4 mps 758 mmHg 70%
    23:00 +10°C° 0 mm 3 mps 757 mmHg 68%
    Show more